This is the latest recevied weather packets stored in our database for station/object OZ1IEP-5. If no packets are shown the sender has not sent any weather packets the latest 10 day(s).
| Time | Temp. | Humidity | Pressure | Rain* | Wind** | Luminosity | Snow |
|---|---|---|---|---|---|---|---|
| 1777980608 | 11.67° C | 73% | 1009.9 hPa | 0 mm | - | 809 W/m² | - |
| 1777980005 | 11.67° C | 71% | 1009.9 hPa | 0 mm | - | 812 W/m² | - |
| 1777979405 | 11.67° C | 74% | 1009.9 hPa | 0 mm | - | 812 W/m² | - |
| 1777978808 | 11.67° C | 76% | 1009.9 hPa | 0 mm | - | 810 W/m² | - |
| 1777978205 | 11.67° C | 76% | 1010 hPa | 0 mm | - | 812 W/m² | - |
| 1777977606 | 11.11° C | 75% | 1010 hPa | 0 mm | - | 816 W/m² | - |
| 1777977008 | 11.67° C | 77% | 1010.1 hPa | 0 mm | - | 809 W/m² | - |
| 1777976406 | 11.11° C | 77% | 1010.1 hPa | 0 mm | - | 809 W/m² | - |
| 1777975805 | 11.11° C | 76% | 1010.2 hPa | 0 mm | - | 810 W/m² | - |
| 1777975209 | 11.11° C | 77% | 1010.3 hPa | 0 mm | - | 796 W/m² | - |
| 1777974605 | 11.67° C | 79% | 1010.3 hPa | 0 mm | - | 800 W/m² | - |
| 1777974006 | 11.11° C | 80% | 1010.3 hPa | 0 mm | - | 513 W/m² | - |
| 1777973407 | 11.11° C | 79% | 1010.3 hPa | 0 mm | - | 680 W/m² | - |
| 1777972806 | 11.11° C | 80% | 1010.3 hPa | 0 mm | - | 772 W/m² | - |
| 1777972205 | 11.11° C | 80% | 1010.3 hPa | 0 mm | - | 745 W/m² | - |
| 1777971607 | 10.56° C | 81% | 1010.2 hPa | 0 mm | - | 763 W/m² | - |
| 1777971006 | 10.56° C | 80% | 1010.3 hPa | 0 mm | - | 722 W/m² | - |
| 1777970406 | 10.56° C | 79% | 1010.2 hPa | 0 mm | - | 724 W/m² | - |
| 1777969807 | 10.56° C | 80% | 1010.2 hPa | 0 mm | - | 677 W/m² | - |
| 1777969205 | 10.56° C | 82% | 1010 hPa | 0 mm | - | 330 W/m² | - |
| 1777968605 | 10° C | 81% | 1010 hPa | 0 mm | - | 185 W/m² | - |
| 1777968008 | 10° C | 82% | 1009.9 hPa | 0 mm | - | 84 W/m² | - |
| 1777967406 | 9.44° C | 81% | 1009.9 hPa | 0 mm | - | 74 W/m² | - |
| 1777966806 | 9.44° C | 83% | 1009.9 hPa | 0 mm | - | 98 W/m² | - |
| 1777966207 | 9.44° C | 82% | 1009.9 hPa | 0 mm | - | 81 W/m² | - |
* Rain latest hour (hover to see other rain measurements)
** Current wind speed in m/s (hover to see current wind gust speed)